Regional Weather Roundup
Issued by NWS

Home | Current Version | Previous Version | Text Only | Print | Product List | Glossary Off
Versions: 1 2 3 4 5 6 7 8 9 10 11 12 13 14 15 16 17 18 19 20 21 22 23 24 25 26 27 28 29 30 31 32 33 34 35 36 37 38 39 40 41 42 43 44 45 46 47 48 49 50

000
ASUS44 KMEG 271110
RWRTN
TENNESSEE HOURLY STATE WEATHER ROUNDUP
NATIONAL WEATHER SERVICE MEMPHIS TN
500 AM CST THU NOV 27 2014

TNZ002-004-019-021-049-052-054-088>092-271200-
WEST TENNESSEE

CITY           SKY/WX    TMP DP  RH WIND       PRES   REMARKS
MEMPHIS INTL   CLOUDY    40  28  62 NW13      30.36R WCI  32
NWS MEMPHIS      N/A     39 N/A N/A MISG        N/A
JACKSON        CLOUDY    38  30  73 NW20G29   30.32R WCI  28
DYERSBURG      CLOUDY    37  21  52 NW8       30.37R WCI  31
UNION CITY     CLOUDY    36  30  80 NW13      30.31R WCI  27
PARIS          CLOUDY    34  30  86 NW5       30.29R WCI  30
HUNTINGDON     CLOUDY    35  31  86 NW8       30.30R WCI  28
LEXINGTON      CLOUDY    37  30  75 NW17      30.27R WCI  28
SAVANNAH       CLOUDY    37  30  75 NW9       30.28R WCI  31
$$

TNZ008-025-027-028-033-062-065-066-271200-
NORTH MIDDLE TENNESSEE

CITY           SKY/WX    TMP DP  RH WIND       PRES   REMARKS
NASHVILLE      CLOUDY    37  31  78 NW9G18    30.23R WCI  30
CLARKSVILLE    CLOUDY    35  33  92 N20       30.25R WCI  24
COOKEVILLE     CLOUDY    36  30  80 NW9       30.15R WCI  29
CROSSVILLE     MOCLDY    34  29  82 W14G23    30.10R WCI  25
$$

TNZ061-075-076-078-094-096-097-271200-
SOUTH MIDDLE TENNESSEE

CITY           SKY/WX    TMP DP  RH WIND       PRES   REMARKS
FAYETTEVILLE   CLOUDY    37  30  75 MISG      30.19R
TULLAHOMA      CLOUDY    36  32  87 NW14      30.18R WCI  27
WINCHESTER     CLOUDY    37  32  81 NW15      30.18R WCI  28
MCMINNVILLE    CLOUDY    37  34  87 CALM      30.16R
COLUMBIA       CLOUDY    37  37 100 NW6       30.22R WCI  33
SHELBYVILLE    CLOUDY    37  36  93 NW16      30.21R WCI  28
$$

TNZ017-018-042-046-047-271200-
NORTHEAST TENNESSEE

CITY           SKY/WX    TMP DP  RH WIND       PRES   REMARKS
TRI CITIES     FLURRIES  34  33  96 SW7       30.02R WCI  28
ELIZABETHTON   CLOUDY    30  30 100 W6        30.01R WCI  24
$$

TNZ012-013-036-069-073-074-271200-
CENTRAL EAST TENNESSEE

CITY           SKY/WX    TMP DP  RH WIND       PRES   REMARKS
KNOXVILLE      CLOUDY    38  33  82 SW13      30.09R WCI  30
OAK RIDGE      MOCLDY    38  31  76 W9G20     30.11R WCI  31
GATLINBURG     CLOUDY    37  30  75 W13       30.07R WCI  29
MORRISTOWN     PTSUNNY   37  37 100 W14       30.06R WCI  29
$$

TNZ083-085-099-271200-
SOUTHEAST TENNESSEE

CITY           SKY/WX    TMP DP  RH WIND       PRES   REMARKS
CHATTANOOGA    MOCLDY    42  31  64 W9        30.15R
$$

SKY/WX REPORTED AS FAIR MEANS FEW OR NO CLOUDS BELOW
12 THOUSAND FEET.



USA.gov is the U.S. government's official web portal to all federal, state and local government web resources and services.